Tracking 18980 objects as of 22-Feb-2018
HD Live streaming from Space Station
objects crossing your sky now

ARIANE 42L+3 R/B

Track ARIANE 42L+3 R/B now!


NORAD ID: 23687
Int'l Code: 1995-055B
Perigee: 495.6 km
Apogee: 36,448.9 km
Inclination: 5.2 °
Period: 649.5 minutes
Semi major axis: 24843 km
RCS: 19.8634 m2 (large)
Launch date: October 19, 1995
Source: France (FR)
Launch site: FRENCH GUIANA (FRGUI)

Note: This is a ROCKET BODY
aabbcc
Your satellite tracking list
Your tracking list is empty




NASA's NSSDC Master Catalog

Two Line Element Set (TLE):
1 23687U 95055B   18051.80116624 -.00000092 +00000-0 +63454-4 0  9991
2 23687 005.2103 336.8500 7236025 209.8576 074.2677 02.21712688180645
Source of the keplerian elements: AFSPC